| time (UTC) | temp F | wind direction | speed MPH | gust MPH | rain 1hr in | rain 24hr in | rain mn in | humidity % | barometer mb |
| 20260906001513 | 64 | 34 | 0.0 | 3.0 | 0.00 | 0.00 | 0.00 | 83 | 1014.6 |
| 20260906000017 | 64 | 351 | 0.0 | 1.0 | 0.00 | 0.00 | 0.00 | 82 | 1014.6 |
| 20260905234526 | 64 | 25 | 0.0 | 2.0 | 0.00 | 0.00 | 0.00 | 82 | 1014.6 |
| 20260905233003 | 65 | 352 | 0.0 | 2.0 | 0.00 | 0.00 | 0.00 | 82 | 1014.7 |
| 20260905231510 | 65 | 5 | 0.0 | 2.0 | 0.00 | 0.00 | 0.00 | 81 | 1014.7 |
| 20260905230014 | 66 | 52 | 0.0 | 4.0 | 0.00 | 0.00 | 0.00 | 78 | 1014.6 |
| 20260905224523 | 67 | 350 | 0.0 | 3.0 | 0.00 | 0.00 | 0.00 | 77 | 1014.6 |
| 20260905223025 | 68 | 41 | 1.0 | 6.0 | 0.00 | 0.00 | 0.00 | 75 | 1014.5 |
| 20260905221510 | 69 | 32 | 0.0 | 3.0 | 0.00 | 0.00 | 0.00 | 73 | 1014.3 |
| 20260905220011 | 69 | 9 | 0.0 | 3.0 | 0.00 | 0.00 | 0.00 | 73 | 1014.3 |
| 20260905214524 | 69 | 37 | 1.0 | 4.0 | 0.00 | 0.00 | 0.00 | 73 | 1014.1 |
| 20260905213109 | 69 | 339 | 1.0 | 6.0 | 0.00 | 0.00 | 0.00 | 72 | 1013.9 |
| 20260905211537 | 69 | 360 | 0.0 | 5.0 | 0.00 | 0.00 | 0.00 | 74 | 1013.9 |
| 20260905210011 | 69 | 26 | 1.0 | 5.0 | 0.00 | 0.00 | 0.00 | 73 | 1013.8 |
| 20260905204525 | 69 | 11 | 1.0 | 3.0 | 0.00 | 0.00 | 0.00 | 72 | 1013.6 |
| 20260905203023 | 69 | 70 | 0.0 | 4.0 | 0.00 | 0.00 | 0.00 | 72 | 1013.8 |
| 20260905201527 | 69 | 9 | 0.0 | 4.0 | 0.00 | 0.00 | 0.00 | 73 | 1013.9 |
| 20260905200007 | 70 | 234 | 0.0 | 4.0 | 0.00 | 0.00 | 0.00 | 70 | 1013.8 |
| 20260905194514 | 70 | 13 | 0.0 | 4.0 | 0.00 | 0.00 | 0.00 | 72 | 1013.8 |
| 20260905193017 | 70 | 11 | 0.0 | 6.0 | 0.00 | 0.00 | 0.00 | 69 | 1013.8 |
| 20260905191527 | 71 | 23 | 0.0 | 8.0 | 0.00 | 0.00 | 0.00 | 67 | 1013.9 |
| 20260905190027 | 70 | 126 | 0.0 | 4.0 | 0.00 | 0.00 | 0.00 | 69 | 1013.8 |
| 20260905184512 | 71 | 51 | 1.0 | 6.0 | 0.00 | 0.00 | 0.00 | 66 | 1013.9 |
| 20260905183017 | 70 | 30 | 0.0 | 5.0 | 0.00 | 0.00 | 0.00 | 70 | 1013.9 |
| 20260905181524 | 70 | 13 | 2.0 | 6.0 | 0.00 | 0.00 | 0.00 | 66 | 1013.9 |
| 20260905180025 | 70 | 5 | 1.0 | 7.0 | 0.00 | 0.00 | 0.00 | 70 | 1013.9 |
| 20260905174530 | 70 | 79 | 0.0 | 4.0 | 0.00 | 0.00 | 0.00 | 66 | 1013.8 |
| 20260905173012 | 70 | 57 | 1.0 | 6.0 | 0.00 | 0.00 | 0.00 | 66 | 1014.0 |
| 20260905171519 | 70 | 296 | 0.0 | 5.0 | 0.00 | 0.00 | 0.00 | 66 | 1014.0 |
| 20260905170026 | 69 | 5 | 0.0 | 4.0 | 0.00 | 0.00 | 0.00 | 70 | 1014.1 |
| 20260905164529 | 69 | 63 | 1.0 | 8.0 | 0.00 | 0.00 | 0.00 | 72 | 1014.2 |
| 20260905163034 | 68 | 74 | 1.0 | 4.0 | 0.00 | 0.00 | 0.00 | 71 | 1014.1 |
| 20260905161516 | 69 | 58 | 2.0 | 9.0 | 0.00 | 0.00 | 0.00 | 69 | 1014.2 |
| 20260905160004 | 68 | 61 | 1.0 | 7.0 | 0.00 | 0.00 | 0.00 | 74 | 1014.3 |
| 20260905154505 | 69 | 344 | 0.0 | 6.0 | 0.00 | 0.00 | 0.00 | 70 | 1014.4 |
| 20260905153006 | 68 | 80 | 0.0 | 6.0 | 0.00 | 0.00 | 0.00 | 72 | 1014.3 |
| 20260905151518 | 68 | 5 | 2.0 | 8.0 | 0.00 | 0.00 | 0.00 | 75 | 1014.4 |
| 20260905150018 | 65 | 351 | 0.0 | 6.0 | 0.00 | 0.00 | 0.00 | 79 | 1014.6 |
| 20260905144503 | 65 | 23 | 1.0 | 8.0 | 0.00 | 0.00 | 0.00 | 79 | 1014.5 |
| 20260905143015 | 65 | 9 | 1.0 | 7.0 | 0.00 | 0.00 | 0.00 | 82 | 1014.4 |
| 20260905141508 | 64 | 352 | 1.0 | 7.0 | 0.00 | 0.00 | 0.00 | 81 | 1014.5 |
| 20260905140017 | 64 | 74 | 1.0 | 8.0 | 0.00 | 0.00 | 0.00 | 82 | 1014.5 |
| 20260905134518 | 64 | 80 | 1.0 | 5.0 | 0.00 | 0.00 | 0.00 | 83 | 1014.6 |
| 20260905133004 | 64 | 68 | 0.0 | 8.0 | 0.00 | 0.00 | 0.00 | 84 | 1014.5 |
| 20260905131506 | 62 | 5 | 1.0 | 5.0 | 0.00 | 0.00 | 0.00 | 87 | 1014.4 |
| 20260905130012 | 61 | 46 | 1.0 | 4.0 | 0.00 | 0.00 | 0.00 | 92 | 1014.5 |
| 20260905124523 | 60 | 328 | 0.0 | 5.0 | 0.00 | 0.00 | 0.00 | 93 | 1014.9 |
| 20260905123027 | 59 | 236 | 0.0 | 1.0 | 0.00 | 0.00 | 0.00 | 92 | 1014.9 |
| 20260905121503 | 60 | 243 | 0.0 | 3.0 | 0.00 | 0.00 | 0.00 | 92 | 1015.0 |
| 20260905120009 | 60 | 347 | 0.0 | 4.0 | 0.00 | 0.00 | 0.00 | 93 | 1014.6 |
| 20260905114515 | 59 | 16 | 2.0 | 5.0 | 0.00 | 0.00 | 0.00 | 93 | 1014.2 |
| 20260905113020 | 59 | 360 | 1.0 | 4.0 | 0.00 | 0.00 | 0.00 | 93 | 1014.0 |
| 20260905111529 | 59 | 28 | 0.0 | 3.0 | 0.00 | 0.00 | 0.00 | 93 | 1014.2 |
| 20260905110008 | 59 | 35 | 0.0 | 3.0 | 0.00 | 0.00 | 0.00 | 93 | 1014.0 |
| 20260905104511 | 58 | 41 | 1.0 | 4.0 | 0.00 | 0.00 | 0.00 | 93 | 1013.6 |
| 20260905103019 | 59 | 24 | 0.0 | 3.0 | 0.00 | 0.00 | 0.00 | 93 | 1013.4 |
| 20260905101530 | 59 | 47 | 0.0 | 2.0 | 0.00 | 0.00 | 0.00 | 93 | 1013.4 |
| 20260905100036 | 59 | 39 | 0.0 | 1.0 | 0.00 | 0.00 | 0.00 | 93 | 1013.2 |
| 20260905094511 | 59 | 5 | 0.0 | 3.0 | 0.00 | 0.00 | 0.00 | 93 | 1013.0 |
| 20260905093019 | 58 | 5 | 0.0 | 0.0 | 0.00 | 0.00 | 0.00 | 92 | 1013.1 |
| 20260905091520 | 59 | 5 | 0.0 | 2.0 | 0.00 | 0.00 | 0.00 | 92 | 1013.1 |
| 20260905090028 | 60 | 28 | 0.0 | 2.0 | 0.00 | 0.00 | 0.00 | 91 | 1013.2 |
| 20260905084530 | 60 | 32 | 1.0 | 4.0 | 0.00 | 0.00 | 0.00 | 91 | 1013.2 |
| 20260905083012 | 60 | 23 | 0.0 | 4.0 | 0.00 | 0.00 | 0.00 | 91 | 1013.2 |
| 20260905081522 | 60 | 54 | 0.0 | 7.0 | 0.00 | 0.00 | 0.00 | 91 | 1013.2 |
| 20260905080032 | 61 | 360 | 0.0 | 4.0 | 0.00 | 0.00 | 0.00 | 90 | 1013.3 |
| 20260905074531 | 61 | 27 | 1.0 | 3.0 | 0.00 | 0.01 | 0.00 | 90 | 1013.2 |
| 20260905073034 | 61 | 9 | 1.0 | 4.0 | 0.00 | 0.02 | 0.00 | 89 | 1013.4 |
| 20260905071515 | 61 | 352 | 0.0 | 4.0 | 0.00 | 0.04 | 0.00 | 88 | 1013.4 |
| 20260905070007 | 62 | 42 | 1.0 | 4.0 | 0.00 | 0.05 | 0.00 | 87 | 1013.6 |
| 20260905064503 | 62 | 39 | 1.0 | 6.0 | 0.00 | 0.07 | 0.00 | 86 | 1013.7 |
| 20260905063007 | 63 | 330 | 1.0 | 5.0 | 0.00 | 0.09 | 0.00 | 85 | 1013.7 |
| 20260905061510 | 62 | 83 | 1.0 | 4.0 | 0.00 | 0.10 | 0.00 | 85 | 1013.9 |
| 20260905060019 | 62 | 46 | 1.0 | 6.0 | 0.00 | 0.12 | 0.00 | 84 | 1013.9 |
| 20260905054510 | 62 | 5 | 1.0 | 7.0 | 0.00 | 0.14 | 0.00 | 83 | 1014.0 |
| 20260905053005 | 62 | 346 | 0.0 | 5.0 | 0.00 | 0.16 | 0.00 | 83 | 1014.1 |
| 20260905051518 | 63 | 5 | 0.0 | 3.0 | 0.00 | 0.18 | 0.00 | 82 | 1014.1 |
| 20260905050012 | 63 | 30 | 1.0 | 4.0 | 0.00 | 0.21 | 0.00 | 82 | 1014.3 |
| 20260905044521 | 63 | 39 | 1.0 | 4.0 | 0.00 | 0.23 | 0.00 | 82 | 1014.4 |
| 20260905043004 | 63 | 59 | 0.0 | 3.0 | 0.00 | 0.25 | 0.00 | 81 | 1014.5 |
| 20260905041508 | 64 | 28 | 0.0 | 3.0 | 0.00 | 0.28 | 0.00 | 80 | 1014.5 |
| 20260905040018 | 64 | 18 | 0.0 | 4.0 | 0.00 | 0.30 | 0.00 | 80 | 1014.4 |
| 20260905034525 | 64 | 54 | 0.0 | 3.0 | 0.00 | 0.31 | 0.30 | 80 | 1014.4 |
| 20260905033026 | 64 | 110 | 0.0 | 1.0 | 0.00 | 0.32 | 0.30 | 81 | 1014.4 |
| 20260905031508 | 65 | 50 | 0.0 | 2.0 | 0.00 | 0.32 | 0.30 | 80 | 1014.4 |
| 20260905030009 | 65 | 9 | 0.0 | 2.0 | 0.00 | 0.32 | 0.30 | 78 | 1014.4 |
| 20260905024514 | 65 | 12 | 0.0 | 2.0 | 0.00 | 0.32 | 0.30 | 78 | 1014.4 |
| 20260905023028 | 66 | 5 | 0.0 | 1.0 | 0.00 | 0.32 | 0.30 | 77 | 1014.3 |
| 20260905021527 | 66 | 37 | 0.0 | 2.0 | 0.00 | 0.32 | 0.30 | 77 | 1014.4 |
| 20260905020012 | 66 | 9 | 0.0 | 2.0 | 0.00 | 0.32 | 0.30 | 77 | 1014.5 |
| 20260905014511 | 66 | 28 | 0.0 | 3.0 | 0.00 | 0.32 | 0.30 | 77 | 1014.7 |
| 20260905013018 | 67 | 352 | 0.0 | 3.0 | 0.00 | 0.32 | 0.30 | 77 | 1014.7 |
| 20260905011524 | 67 | 48 | 0.0 | 3.0 | 0.00 | 0.32 | 0.30 | 77 | 1014.7 |
| 20260905010026 | 67 | 66 | 0.0 | 5.0 | 0.00 | 0.32 | 0.30 | 77 | 1014.5 |
| 20260905004510 | 67 | 5 | 0.0 | 3.0 | 0.00 | 0.32 | 0.30 | 78 | 1014.5 |
| 20260905003014 | 67 | 5 | 0.0 | 3.0 | 0.00 | 0.32 | 0.30 | 78 | 1014.3 |